KINEIS-3B

Last updated on Sun Jun 21 2026 00:03:01 GMT+0000 (Coordinated Universal Time)

1 61224U 24172E 26171.48098037 .00001388 00000+0 22746-3 0 9990 2 61224 98.0419 261.4609 0003051 77.2899 282.8649 14.72302180 93837
UTC large
Height (km)
Speed (km/s)
/
Latitude / Longitude
Inclination (degrees)
Orbital Period (minutes)
Azimuth
Elevation
Range (km)
Doppler Factor

Next 0 passes for location: London (51.5072 / 0.1276)

No passes found over London.
KINEIS-3B